Orbital Elements at Epoch 2459200.5 (2020-Dec-17.0) TDB
Reference: JPL 32 (heliocentric ecliptic J2000)
Element | Value | Uncertainty (1-sigma) | Units |
e | .1107917623901901 | 3.3673e-08 | |
a | 2.455627436352961 | 8.6158e-09 | au |
q | 2.183564144905712 | 8.3675e-08 | au |
i | 1.770273423141721 | 3.4987e-06 | deg |
node | 66.24484857645783 | 0.00011485 | deg |
peri | 91.72587026883771 | 0.00011593 | deg |
M | 8.48596907081162 | 1.606e-05 | deg |
tp | 2459167.368500948084 (2020-Nov-13.86850095) | 6.2668e-05 | TDB |
period | 1405.536546169481 3.85 | 7.3972e-06 2.025e-08 | d yr |
n | .2561299462337786 | 1.348e-09 | deg/d |
Q | 2.72769072780021 | 9.5704e-09 | au |
|
| | Orbit Determination Parameters
Additional Information
|